When you browse on this site, cookies collect data to enhance your experience and personalize the content and advertising you see.
Visit our Privacy Policy to learn more. By continuing to use the site, you agree to this use of cookies and data.
  • In Portugal
  • List of Countries
  • For 7 days
  • Water Temperature
  • Satellite Maps
  • Weather Map
  • Weather Widgets
  • user-avatar
    Login

    Hourly Weather Mahilyow

    Today, 16 February, Saturday

    Time Temperature Precipitation Wind Pressure Humidity
    00:00 -1°C° 0 mm 4 mps 753 mmHg 94%
    01:00 -1°C° 0 mm 4 mps 753 mmHg 94%
    02:00 -1°C° 0 mm 4 mps 753 mmHg 94%
    03:00 -1°C° 0 mm 4 mps 753 mmHg 95%
    04:00 -1°C° 0 mm 4 mps 753 mmHg 95%
    05:00 -1°C° 0 mm 4 mps 752 mmHg 96%
    06:00 -1°C° 0 mm 4 mps 752 mmHg 96%
    07:00 -1°C° 0 mm 4 mps 752 mmHg 96%
    08:00 -1°C° 0 mm 4 mps 752 mmHg 96%
    09:00 -1°C° 0 mm 4 mps 752 mmHg 96%
    10:00 -1°C° 0 mm 4 mps 752 mmHg 97%
    11:00 -1°C° 0 mm 4 mps 752 mmHg 97%
    12:00 0°C° 0 mm 4 mps 752 mmHg 97%
    13:00 0°C° 0 mm 4 mps 752 mmHg 97%
    14:00 0°C° 0 mm 4 mps 752 mmHg 96%
    15:00 0°C° 0 mm 4 mps 751 mmHg 95%
    16:00 0°C° 0 mm 4 mps 751 mmHg 93%
    17:00 0°C° 0 mm 4 mps 751 mmHg 91%
    18:00 -1°C° 0 mm 4 mps 751 mmHg 90%
    19:00 -1°C° 0 mm 4 mps 750 mmHg 89%
    20:00 -1°C° 0 mm 4 mps 750 mmHg 88%
    21:00 -1°C° 0 mm 4 mps 750 mmHg 87%
    22:00 -1°C° 0 mm 4 mps 749 mmHg 86%
    23:00 -2°C° 0 mm 4 mps 749 mmHg 85%

    Tomorrow, 17 February, Sunday

    Time Temperature Precipitation Wind Pressure Humidity
    00:00 -2°C° 0 mm 4 mps 748 mmHg 85%
    01:00 -2°C° 0 mm 5 mps 748 mmHg 84%
    02:00 -1°C° 0 mm 5 mps 747 mmHg 84%
    03:00 -2°C° 0 mm 5 mps 747 mmHg 84%
    04:00 -2°C° 0 mm 5 mps 746 mmHg 85%
    05:00 -2°C° 0 mm 5 mps 746 mmHg 85%
    06:00 -2°C° 0 mm 5 mps 746 mmHg 86%
    07:00 -1°C° 0 mm 5 mps 746 mmHg 87%
    08:00 -1°C° 0 mm 5 mps 746 mmHg 87%
    09:00 -1°C° 0 mm 5 mps 746 mmHg 89%
    10:00 0°C° 0 mm 5 mps 746 mmHg 91%
    11:00 0°C° 0 mm 5 mps 746 mmHg 93%
    12:00 0°C° 0 mm 5 mps 746 mmHg 94%
    13:00 0°C° 0 mm 4 mps 746 mmHg 94%
    14:00 0°C° 0 mm 4 mps 746 mmHg 95%
    15:00 0°C° 0 mm 4 mps 746 mmHg 92%
    16:00 0°C° 0 mm 5 mps 747 mmHg 90%
    17:00 0°C° 0 mm 5 mps 747 mmHg 87%
    18:00 -1°C° 0 mm 5 mps 747 mmHg 87%
    19:00 -1°C° 0 mm 5 mps 748 mmHg 87%
    20:00 -2°C° 0 mm 4 mps 748 mmHg 87%
    21:00 -2°C° 0 mm 4 mps 749 mmHg 86%
    22:00 -3°C° 0 mm 4 mps 749 mmHg 85%
    23:00 -3°C° 0 mm 4 mps 749 mmHg 84%

    Day after tomorrow, 18 February, Monday

    Time Temperature Precipitation Wind Pressure Humidity
    00:00 -4°C° 0 mm 3 mps 750 mmHg 85%
    01:00 -4°C° 0 mm 3 mps 750 mmHg 86%
    02:00 -4°C° 0 mm 3 mps 750 mmHg 87%
    03:00 -5°C° 0 mm 3 mps 751 mmHg 88%
    04:00 -5°C° 0 mm 3 mps 751 mmHg 88%
    05:00 -5°C° 0 mm 3 mps 751 mmHg 89%
    06:00 -5°C° 0 mm 3 mps 752 mmHg 88%
    07:00 -5°C° 0 mm 3 mps 752 mmHg 88%
    08:00 -6°C° 0 mm 3 mps 753 mmHg 88%
    09:00 -5°C° 0 mm 3 mps 753 mmHg 83%
    10:00 -4°C° 0 mm 3 mps 753 mmHg 79%
    11:00 -2°C° 0 mm 3 mps 754 mmHg 75%
    12:00 -2°C° 0 mm 3 mps 754 mmHg 74%
    13:00 -2°C° 0 mm 2 mps 754 mmHg 73%
    14:00 -1°C° 0 mm 2 mps 754 mmHg 72%
    15:00 -2°C° 0 mm 2 mps 755 mmHg 75%
    16:00 -1°C° 0 mm 1 mps 755 mmHg 79%
    17:00 -1°C° 0 mm 1 mps 755 mmHg 82%
    18:00 -1°C° 0 mm 1 mps 755 mmHg 83%
    19:00 -3°C° 0 mm 0 mps 755 mmHg 83%
    20:00 -3°C° 0 mm 0 mps 755 mmHg 84%
    21:00 -3°C° 0 mm 0 mps 755 mmHg 84%
    22:00 -2°C° 0 mm 1 mps 755 mmHg 84%
    23:00 -2°C° 0 mm 1 mps 756 mmHg 84%

    19 February, Tuesday

    Time Temperature Precipitation Wind Pressure Humidity
    00:00 -5°C° 0 mm 2 mps 756 mmHg 85%
    01:00 -5°C° 0 mm 2 mps 756 mmHg 85%
    02:00 -5°C° 0 mm 2 mps 756 mmHg 86%
    03:00 -6°C° 0 mm 3 mps 755 mmHg 85%
    04:00 -6°C° 0 mm 3 mps 755 mmHg 84%
    05:00 -6°C° 0 mm 3 mps 755 mmHg 84%
    06:00 -6°C° 0 mm 3 mps 754 mmHg 83%
    07:00 -6°C° 0 mm 3 mps 754 mmHg 82%
    08:00 -7°C° 0 mm 4 mps 754 mmHg 81%
    09:00 -5°C° 0 mm 4 mps 754 mmHg 77%
    10:00 -3°C° 0 mm 4 mps 753 mmHg 73%
    11:00 -2°C° 0 mm 4 mps 753 mmHg 69%
    12:00 -2°C° 0 mm 5 mps 753 mmHg 69%
    13:00 -1°C° 0 mm 5 mps 752 mmHg 68%
    14:00 0°C° 0 mm 5 mps 751 mmHg 67%
    15:00 -1°C° 0 mm 5 mps 751 mmHg 68%
    16:00 -1°C° 0 mm 5 mps 750 mmHg 69%
    17:00 -2°C° 0 mm 5 mps 750 mmHg 70%
    18:00 -2°C° 0 mm 5 mps 749 mmHg 71%
    19:00 -2°C° 0 mm 5 mps 749 mmHg 71%
    20:00 -2°C° 0 mm 5 mps 749 mmHg 72%
    21:00 -2°C° 0 mm 5 mps 748 mmHg 75%
    22:00 -2°C° 0 mm 5 mps 748 mmHg 78%
    23:00 -2°C° 0 mm 5 mps 747 mmHg 81%

    20 February, Wednesday

    Time Temperature Precipitation Wind Pressure Humidity
    00:00 -2°C° 0 mm 5 mps 747 mmHg 85%
    01:00 -2°C° 0 mm 5 mps 746 mmHg 88%
    02:00 -2°C° 0 mm 5 mps 746 mmHg 92%
    03:00 -2°C° 0 mm 5 mps 746 mmHg 93%
    04:00 -2°C° 0 mm 5 mps 745 mmHg 93%
    05:00 -2°C° 0 mm 5 mps 745 mmHg 94%
    06:00 -2°C° 0 mm 5 mps 745 mmHg 94%
    07:00 -2°C° 0 mm 4 mps 745 mmHg 93%
    08:00 -1°C° 0 mm 4 mps 745 mmHg 93%
    09:00 -1°C° 0 mm 4 mps 745 mmHg 92%
    10:00 0°C° 0 mm 4 mps 745 mmHg 91%
    11:00 0°C° 0 mm 4 mps 745 mmHg 90%
    12:00 0°C° 0 mm 4 mps 745 mmHg 88%
    13:00 +1°C° 0 mm 5 mps 746 mmHg 85%
    14:00 +1°C° 0 mm 5 mps 746 mmHg 83%
    15:00 +1°C° 0 mm 5 mps 746 mmHg 84%
    16:00 0°C° 0 mm 5 mps 746 mmHg 85%
    17:00 0°C° 0 mm 5 mps 746 mmHg 86%
    18:00 0°C° 0 mm 5 mps 746 mmHg 86%
    19:00 0°C° 0 mm 5 mps 746 mmHg 86%
    20:00 0°C° 0 mm 5 mps 746 mmHg 87%
    21:00 0°C° 0 mm 5 mps 745 mmHg 87%
    22:00 -1°C° 0 mm 6 mps 745 mmHg 87%
    23:00 -1°C° 0 mm 6 mps 745 mmHg 87%

    21 February, Thursday

    Time Temperature Precipitation Wind Pressure Humidity
    00:00 -1°C° 0 mm 6 mps 745 mmHg 88%
    01:00 -1°C° 0 mm 6 mps 745 mmHg 88%
    02:00 -1°C° 0 mm 6 mps 745 mmHg 88%
    03:00 0°C° 0.1 mm 5 mps 745 mmHg 88%
    04:00 0°C° 0.1 mm 5 mps 745 mmHg 88%
    05:00 0°C° 0.1 mm 5 mps 745 mmHg 89%
    06:00 -1°C° 0 mm 5 mps 745 mmHg 89%
    07:00 -1°C° 0 mm 5 mps 746 mmHg 90%
    08:00 -2°C° 0 mm 5 mps 746 mmHg 90%
    09:00 -1°C° 0 mm 5 mps 746 mmHg 84%
    10:00 -2°C° 0 mm 6 mps 746 mmHg 78%
    11:00 -1°C° 0 mm 6 mps 747 mmHg 72%
    12:00 -1°C° 0 mm 6 mps 747 mmHg 71%
    13:00 -2°C° 0 mm 6 mps 747 mmHg 70%
    14:00 -2°C° 0 mm 6 mps 747 mmHg 69%
    15:00 -2°C° 0 mm 6 mps 748 mmHg 68%
    16:00 -3°C° 0 mm 6 mps 749 mmHg 67%
    17:00 -4°C° 0 mm 5 mps 749 mmHg 66%
    18:00 -4°C° 0 mm 5 mps 750 mmHg 65%
    19:00 -5°C° 0 mm 5 mps 751 mmHg 64%
    20:00 -5°C° 0 mm 5 mps 751 mmHg 63%
    21:00 -5°C° 0 mm 4 mps 752 mmHg 64%
    22:00 -5°C° 0 mm 4 mps 753 mmHg 64%
    23:00 -7°C° 0 mm 4 mps 753 mmHg 65%
    Show more